GW2741 Weather Reports


time (UTC)temp
C
wind
direction
speed
KPH
gust
KPH
rain 1hr
cm
rain 24hr
cm
rain mn
cm
humidity
%
barometer
mb
20260505181530 10 330 12.9 25.7 0.00 0.00 0.00 37 1014.0
20260505180630 11 322 9.7 17.7 0.00 0.00 0.00 36 1014.0
20260505174830 11 332 9.7 16.1 0.00 0.00 0.00 38 1014.0
20260505173930 11 338 11.3 20.9 0.00 0.00 0.00 38 1014.0
20260505173030 11 335 14.5 27.4 0.00 0.00 0.00 37 1013.9
20260505172130 12 325 11.3 24.1 0.00 0.00 0.00 37 1013.9
20260505171230 12 328 9.7 24.1 0.00 0.00 0.00 36 1013.9
20260505170330 12 327 11.3 24.1 0.00 0.00 0.00 38 1014.0
20260505165430 11 340 14.5 24.1 0.00 0.00 0.00 37 1014.1
20260505163630 11 335 16.1 24.1 0.00 0.00 0.00 40 1014.1
20260505162730 11 329 16.1 27.4 0.00 0.00 0.00 40 1013.8
20260505161830 11 319 16.1 22.5 0.00 0.00 0.00 40 1013.9
20260505160930 11 334 16.1 27.4 0.00 0.00 0.00 40 1014.0
20260505152430 11 346 16.1 27.4 0.00 0.00 0.00 41 1014.0
20260505150630 12 326 16.1 24.1 0.00 0.00 0.00 43 1013.9
20260505124230 12 337 12.9 17.7 0.00 0.00 0.00 41 1013.5
20260505123330 12 330 12.9 22.5 0.00 0.00 0.00 41 1013.9
20260505122430 13 331 11.3 17.7 0.00 0.00 0.00 41 1013.7
20260505121530 13 328 12.9 17.7 0.00 0.00 0.00 42 1013.8
20260505120630 13 319 11.3 17.7 0.00 0.00 0.00 41 1013.8
20260505115730 13 304 12.9 17.7 0.00 0.00 0.00 41 1013.8
20260505114830 13 331 12.9 19.3 0.00 0.00 0.00 43 1013.9
20260505113930 12 322 12.9 19.3 0.00 0.00 0.00 43 1013.6
20260505113030 12 316 14.5 20.9 0.00 0.00 0.00 43 1014.0
20260505112130 12 336 14.5 22.5 0.00 0.00 0.00 42 1013.9
20260505111230 12 321 14.5 24.1 0.00 0.00 0.00 41 1013.7
20260505101830 13 335 12.9 17.7 0.00 0.00 0.00 36 1013.8
20260505100030 13 310 9.7 16.1 0.00 0.00 0.00 36 1013.7
20260505095130 14 330 6.4 12.9 0.00 0.00 0.00 37 1013.5
20260505094230 13 333 8.0 14.5 0.00 0.00 0.00 38 1013.6
20260505092430 13 324 8.0 17.7 0.00 0.00 0.00 40 1013.7
20260505091530 13 347 11.3 17.7 0.00 0.00 0.00 40 1013.6
20260505090630 13 337 9.7 17.7 0.00 0.00 0.00 40 1013.7
20260505085730 13 338 8.0 14.5 0.00 0.00 0.00 42 1013.7
20260505084832 13 338 8.0 14.5 0.00 0.00 0.00 42 1013.5
20260505083930 12 330 9.7 19.3 0.00 0.00 0.00 41 1013.7
20260505082130 12 331 12.9 17.7 0.00 0.00 0.00 43 1013.6
20260505081230 12 333 9.7 16.1 0.00 0.00 0.00 41 1013.7
20260505080330 12 356 11.3 19.3 0.00 0.00 0.00 42 1013.7
20260505075430 12 337 8.0 16.1 0.00 0.00 0.00 43 1013.4
20260505073630 12 333 8.0 14.5 0.00 0.00 0.00 49 1013.5
20260505071830 11 333 9.7 16.1 0.00 0.00 0.00 56 1013.7
20260505070930 11 336 6.4 12.9 0.00 0.00 0.00 61 1013.4
20260505070030 10 319 8.0 17.7 0.00 0.00 0.00 62 1013.5
20260505065130 10 326 6.4 12.9 0.00 0.00 0.00 65 1013.4
20260505064230 9 336 6.4 12.9 0.00 0.00 0.00 68 1013.4
20260505062430 9 354 4.8 14.5 0.00 0.00 0.00 71 1013.4
20260505061530 8 333 8.0 14.5 0.00 0.00 0.00 71 1013.4
20260504222001 8 277 3.2 6.4 0.00 0.00 0.00 78 1013.8
20260504221101 8 303 4.8 8.0 0.00 0.00 0.00 78 1013.8
20260504220201 8 310 4.8 12.9 0.00 0.00 0.00 77 1013.6
20260504215301 8 291 6.4 17.7 0.00 0.00 0.00 77 1013.7
20260504214401 8 327 11.3 27.4 0.00 0.00 0.00 76 1013.7
20260504212601 8 299 6.4 12.9 0.00 0.00 0.00 75 1013.6
20260504211701 9 296 6.4 12.9 0.00 0.00 0.00 75 1013.9
20260504210801 9 309 6.4 12.9 0.00 0.00 0.00 74 1014.1
20260504205901 9 319 6.4 9.7 0.00 0.00 0.00 74 1014.1
20260504204101 9 308 8.0 14.5 0.00 0.00 0.00 72 1013.9
20260504203201 9 288 8.0 17.7 0.00 0.00 0.00 71 1013.9
20260504202301 9 288 8.0 16.1 0.00 0.00 0.00 71 1013.7
20260504201401 9 297 9.7 16.1 0.00 0.00 0.00 70 1013.8
20260504200501 9 286 8.0 17.7 0.00 0.00 0.00 70 1014.0
20260504195601 9 277 8.0 17.7 0.00 0.00 0.00 70 1013.7
20260504194701 10 313 8.0 17.7 0.00 0.00 0.00 70 1013.9
20260504193801 10 323 9.7 17.7 0.00 0.00 0.00 69 1013.9
20260504192001 10 311 11.3 17.7 0.00 0.00 0.00 67 1014.0
20260504191101 10 323 11.3 20.9 0.00 0.00 0.00 67 1013.7
20260504190203 11 305 8.0 17.7 0.00 0.00 0.00 68 1013.5
20260504184401 10 316 6.4 12.9 0.00 0.00 0.00 66 1013.6
20260504183501 10 313 6.4 11.3 0.00 0.00 0.00 65 1013.4